Wetbulb
60.28 60.47 60.40 60.34 60.38 60.45 60.35 59.79 60.31 60.18 60.61 60.50 60.77 60.70 60.69 60.79 60.21 60.38 55.46 61.98 64.73 74.28 73.77 67.34 68.09 68.08 70.17 67.32 68.53 67.67 55.74 54.55 57.92 59.52 61.13 65.55 64.46 66.84 68.44 65.92 67.83 68.29 67.26 68.30 70.01
59.97 59.95 59.96 59.73 59.84 59.86 59.70 60.29 60.55 60.41 60.37 60.31 60.48 60.53 61.17 61.30 59.34 57.56 65.88 73.94 75.26 75.53 65.18 64.95 65.73 68.00 65.18 65.96 66.65 62.05 56.30 57.44 63.23 62.39 63.34 65.60 63.36 62.61 64.40 64.32 65.52 66.54 68.87 69.98 69.48
59.68 59.55 59.28 59.29 59.07 58.92 58.51 58.82 59.50 58.82 59.40 59.58 60.09 60.57 61.00 60.48 58.83 57.54 72.98 74.26 75.20 74.43 62.43 63.61 65.07 63.51 61.98 62.81 64.16 63.94 56.25 61.93 64.18 65.87 64.05 64.63 64.88 66.10 63.30 61.49 64.49 64.61 66.20 67.79 68.07
58.96 58.71 58.07 58.01 58.19 58.17 58.40 58.61 58.88 58.68 59.01 59.15 60.00 60.49 61.25 59.87 52.51 61.29 73.94 74.21 74.88 65.46 61.38 62.86 63.05 60.50 58.90 59.75 63.85 60.33 62.52 63.57 65.64 66.56 66.42 65.55 67.53 63.84 64.38 63.76 67.24 68.00 67.94 67.89 67.05
57.64 57.50 57.43 57.71 57.54 57.66 58.31 58.45 58.08 58.22 58.74 59.37 60.16 60.76 58.71 56.02 55.80 65.98 72.93 72.72 65.60 60.45 61.52 61.82 60.69 60.52 55.99 59.80 63.84 60.81 59.86 62.40 66.23 65.56 66.19 66.45 63.50 64.86 63.43 65.71 67.62 68.24 68.16 67.22 67.07
57.25 57.29 57.25 57.10 57.36 57.31 57.79 57.90 57.61 57.80 58.80 59.80 60.65 60.69 55.99 50.26 62.83 65.52 62.29 61.13 58.71 60.80 62.14 62.91 61.50 61.67 57.05 57.06 59.62 62.99 63.10 64.24 64.98 64.20 65.77 63.85 64.65 64.69 64.84 66.95 66.73 67.41 66.84 67.73 67.16
56.91 56.89 56.89 56.89 57.00 57.13 57.20 57.12 57.23 57.64 59.04 60.59 61.55 61.27 56.46 55.66 63.23 61.61 59.16 56.47 57.95 61.73 61.01 64.20 61.37 56.90 57.85 55.80 62.67 62.53 60.92 62.31 61.31 60.63 63.08 65.32 61.85 62.75 64.24 65.80 65.76 64.93 65.20 67.08 67.41
56.35 56.54 56.52 56.44 56.52 56.56 56.56 56.51 56.75 58.26 60.26 62.11 61.38 59.12 53.91 62.31 62.33 61.71 59.76 59.25 60.16 61.55 62.74 61.73 58.72 56.11 56.63 58.33 57.53 58.68 58.82 53.45 61.06 62.00 63.66 62.46 55.83 63.54 66.04 64.64 63.62 63.47 64.49 66.30 67.30
55.94 56.15 56.01 56.01 55.93 55.66 55.59 55.63 56.94 60.14 62.70 60.96 57.36 55.08 54.57 65.55 59.40 60.98 63.05 58.36 59.95 60.62 61.86 62.42 56.05 52.82 55.09 51.64 49.61 56.93 51.09 53.86 57.51 62.34 63.26 61.36 57.31 63.82 66.13 64.85 63.36 63.83 64.25 64.22 66.60
55.74 55.58 55.54 55.62 55.47 55.30 54.86 55.36 58.41 59.27 60.13 62.03 60.86 53.67 59.05 58.83 59.13 60.30 61.45 60.51 59.56 60.16 57.95 55.72 52.29 49.35 49.77 47.32 42.58 51.72 51.23 55.03 56.33 61.80 61.27 58.83 57.74 63.00 64.21 65.33 64.11 63.06 63.97 63.80 64.20
55.72 55.33 55.26 55.42 55.71 54.88 53.86 56.95 55.53 54.42 57.32 54.50 54.51 56.53 59.08 61.96 61.21 59.06 60.04 57.86 58.34 56.10 49.46 52.89 47.32 44.87 48.64 51.50 52.99 53.22 55.08 53.16 55.77 61.74 57.34 55.30 55.95 62.66 63.76 63.76 64.55 62.70 62.56 63.11 62.36
56.36 55.04 54.91 54.76 55.16 55.04 52.39 53.88 59.55 59.54 52.70 57.96 57.58 57.32 59.34 60.37 55.83 59.26 60.17 53.62 52.89 49.22 52.02 49.54 46.11 51.72 53.95 53.30 52.42 51.49 49.78 49.81 54.40 58.36 56.03 55.03 54.99 62.35 63.02 61.91 62.70 62.27 63.72 63.45 63.33
56.05 54.91 54.44 54.10 54.67 52.23 53.79 54.62 59.24 59.18 52.06 55.70 58.78 58.37 57.38 58.18 55.78 57.30 57.91 54.72 51.36 49.31 49.59 46.45 49.53 54.39 53.66 52.47 50.53 48.88 47.78 49.70 49.72 53.29 56.25 53.16 50.05 54.54 61.57 62.49 62.07 63.39 65.28 65.94 64.04
55.55 54.68 54.00 53.55 51.34 57.53 55.89 58.44 58.42 58.43 47.56 52.57 53.38 58.15 58.10 56.54 54.45 59.99 60.06 56.45 53.27 50.14 51.34 49.30 52.24 51.98 51.07 50.68 49.94 42.56 52.24 52.81 53.11 50.03 44.66 51.08 42.16 52.72 57.65 58.89 59.81 62.35 64.88 65.42 64.77
55.36 54.43 53.36 53.57 50.60 56.06 61.25 61.80 61.01 58.08 40.12 55.58 54.55 60.60 56.01 52.45 55.04 56.20 59.49 57.08 52.75 52.32 50.69 49.34 50.74 49.85 49.22 49.79 51.17 48.59 52.57 51.56 51.71 49.10 46.13 47.81 42.51 50.52 54.79 54.85 57.74 61.18 61.83 65.83 65.96
54.61 53.84 53.29 53.00 52.35 55.94 59.06 60.84 58.15 47.54 43.48 52.64 55.19 53.24 51.93 52.84 54.65 56.54 56.02 58.19 57.44 52.49 52.31 52.28 55.67 52.87 50.12 52.82 52.17 53.02 49.69 49.79 48.17 44.59 40.01 46.27 46.14 49.63 51.53 55.56 57.59 60.29 62.70 65.64 66.52
53.18 52.35 51.68 56.19 57.27 60.92 59.18 57.89 46.85 43.74 56.32 52.07 51.52 53.84 51.82 51.05 52.97 53.51 53.57 52.24 49.68 44.34 46.03 51.72 52.19 54.00 53.12 48.27 49.61 47.91 42.83 37.37 36.99 38.08 39.92 50.36 47.88 50.67 57.31 59.26 60.25 60.83 62.59 63.95 66.63
51.46 50.84 52.85 57.07 61.66 61.39 58.85 52.06 44.46 53.46 52.44 54.74 54.04 54.17 50.56 51.72 51.96 52.80 51.35 49.98 53.35 51.20 48.55 45.39 44.85 51.15 53.49 48.95 46.93 46.55 42.57 38.19 34.51 37.89 42.87 50.48 44.71 49.28 57.24 59.95 62.19 62.25 62.28 64.68 65.77
51.04 56.24 58.04 59.87 58.40 58.68 55.08 46.67 49.27 53.08 54.84 52.91 53.18 50.49 50.76 52.86 51.93 50.78 49.88 50.69 53.15 53.55 46.93 44.33 46.48 54.13 53.21 52.06 50.50 46.74 42.59 46.80 40.56 40.74 39.61 43.46 48.76 53.97 56.15 56.33 56.26 56.17 58.99 63.65 65.01
55.51 61.13 61.74 63.50 61.35 58.69 52.78 46.90 52.19 56.81 55.72 54.42 48.97 51.72 49.13 52.32 50.40 49.37 49.26 52.82 52.54 55.40 55.06 49.89 44.61 52.03 54.47 54.57 52.25 48.18 49.25 41.00 41.68 35.70 35.82 42.30 45.01 46.25 49.93 54.19 56.16 57.43 58.30 60.55 64.01
57.89 58.23 60.34 62.13 60.71 55.99 49.08 51.83 55.66 57.96 56.99 53.66 51.54 50.65 51.24 51.19 52.11 51.43 52.69 55.53 56.33 55.91 55.65 51.65 47.95 48.83 51.60 49.62 48.17 46.97 44.33 45.36 42.93 41.43 37.65 37.34 42.99 51.42 51.41 53.70 54.88 55.23 59.44 60.73 62.63
59.60 56.77 61.67 62.46 53.70 55.03 51.75 54.89 55.62 56.71 57.35 55.22 54.91 53.56 51.97 53.09 51.38 51.49 51.81 54.39 57.86 55.73 52.63 53.45 48.60 45.43 48.49 53.34 54.78 52.38 49.11 46.22 40.33 39.14 42.05 41.44 42.57 53.86 54.29 56.13 55.73 56.82 61.64 62.15 63.62
55.13 59.57 63.31 61.12 50.94 53.22 55.80 56.52 57.46 55.71 55.16 55.24 53.94 54.73 54.93 51.77 48.77 52.81 53.66 57.08 57.44 55.83 51.20 51.15 47.79 42.12 45.46 48.69 50.59 48.70 52.65 52.44 51.21 44.22 40.41 38.87 42.85 55.69 56.04 57.79 56.45 56.97 61.65 63.01 64.46
56.94 55.76 58.31 58.62 57.50 54.03 53.82 53.86 52.96 57.25 56.70 56.79 55.28 55.43 53.34 51.69 52.75 51.42 53.14 56.88 57.57 57.74 62.30 57.39 47.36 45.02 41.91 45.76 49.81 48.24 50.56 52.19 50.52 46.00 43.55 44.53 46.97 52.29 55.09 55.93 54.96 55.73 58.20 61.95 63.38
58.83 54.48 54.53 50.42 52.42 52.76 52.73 52.13 51.08 51.62 54.70 55.18 53.67 52.81 50.38 47.46 50.18 50.22 52.16 53.04 55.12 59.24 55.93 53.88 45.99 47.68 49.27 51.16 51.48 50.59 50.52 51.68 49.03 49.47 47.28 49.58 49.52 51.86 56.00 55.89 55.43 56.27 60.40 64.07 62.44
52.71 52.74 55.22 53.14 54.97 53.04 50.88 52.24 52.32 51.83 51.20 50.21 49.81 51.52 51.02 47.77 48.18 46.66 48.85 48.76 48.99 52.94 50.48 52.39 46.87 49.57 48.63 52.68 52.59 49.73 51.16 51.96 52.11 52.09 51.28 51.18 50.98 54.62 57.32 58.36 57.71 57.25 59.99 60.51 59.11
55.59 55.82 54.38 52.64 53.52 51.25 50.35 51.24 50.96 52.15 53.02 53.08 51.82 49.89 49.21 50.53 51.85 51.48 51.36 50.42 50.09 48.18 47.37 46.28 45.79 45.01 41.96 49.63 49.45 46.01 49.59 51.27 51.51 52.98 51.61 49.20 51.25 57.43 56.36 57.43 57.32 58.33 58.82 58.49 59.20
MSLP
1017.24 1017.02 1016.77 1016.48 1016.20 1015.92 1015.66 1015.34 1015.05 1014.76 1014.44 1014.18 1014.07 1013.93 1013.69 1013.30 1012.50 1012.20 1010.70 1008.16 1008.03 1007.95 1008.31 1007.92 1007.52 1007.00 1006.77 1006.80 1007.95 1009.86 1011.61 1011.52 1010.26 1009.24 1008.93 1008.76 1009.17 1008.69 1008.19 1007.71 1007.87 1007.81 1009.03 1010.38 1011.33
1017.27 1017.02 1016.73 1016.43 1016.17 1015.91 1015.67 1015.34 1014.96 1014.67 1014.34 1014.08 1013.91 1013.72 1013.51 1013.21 1012.41 1010.43 1007.69 1007.49 1007.45 1007.84 1008.03 1007.61 1006.82 1006.22 1006.39 1006.27 1008.34 1009.57 1010.79 1010.95 1009.41 1009.01 1008.75 1008.40 1008.55 1008.42 1008.63 1008.75 1009.00 1009.48 1010.57 1011.13 1011.58
1017.31 1017.03 1016.72 1016.39 1016.10 1015.84 1015.61 1015.36 1014.99 1014.72 1014.36 1014.02 1013.81 1013.60 1013.34 1013.14 1011.86 1007.89 1006.02 1007.02 1007.32 1007.66 1007.65 1007.19 1006.79 1006.26 1005.77 1005.44 1007.18 1008.51 1009.19 1009.06 1008.30 1008.07 1008.29 1008.14 1008.45 1008.70 1008.80 1009.19 1009.23 1009.87 1010.34 1011.34 1011.78
1017.35 1017.06 1016.81 1016.47 1016.14 1015.81 1015.47 1015.14 1014.88 1014.62 1014.36 1014.09 1013.80 1013.60 1013.36 1012.91 1010.37 1006.88 1006.29 1006.78 1007.34 1007.57 1007.60 1006.95 1006.45 1006.03 1005.58 1005.48 1006.25 1007.72 1008.57 1008.23 1007.48 1007.43 1007.88 1007.78 1007.98 1009.22 1009.31 1009.24 1008.97 1009.58 1009.96 1010.70 1011.42
1017.39 1017.04 1016.72 1016.38 1016.09 1015.75 1015.39 1015.02 1014.72 1014.47 1014.20 1013.95 1013.74 1013.53 1013.19 1012.01 1008.61 1006.61 1006.87 1007.02 1007.50 1007.65 1007.38 1006.86 1006.45 1005.72 1005.41 1005.23 1005.72 1006.82 1007.05 1007.14 1007.25 1006.84 1007.17 1007.57 1008.45 1009.01 1009.46 1008.99 1008.83 1008.84 1009.51 1010.11 1010.76
1017.35 1016.95 1016.58 1016.26 1015.92 1015.60 1015.22 1014.85 1014.58 1014.36 1014.04 1013.75 1013.62 1013.60 1012.97 1010.36 1005.84 1006.12 1006.67 1007.21 1007.06 1007.33 1006.97 1006.52 1005.93 1005.23 1004.96 1005.01 1005.09 1005.65 1006.30 1006.72 1006.55 1006.60 1006.54 1007.15 1007.84 1008.53 1009.16 1008.85 1008.97 1008.77 1008.89 1009.52 1010.05
1017.31 1016.91 1016.51 1016.16 1015.76 1015.38 1014.99 1014.71 1014.40 1014.06 1013.81 1013.65 1013.54 1013.30 1011.75 1008.26 1005.67 1006.01 1006.23 1006.53 1006.55 1006.69 1006.67 1005.68 1005.34 1005.30 1005.26 1005.34 1004.88 1005.21 1006.09 1006.62 1006.33 1006.04 1006.35 1006.55 1007.79 1008.33 1008.37 1008.71 1008.71 1008.29 1008.16 1009.12 1009.43
1017.24 1016.84 1016.41 1016.03 1015.59 1015.15 1014.82 1014.47 1014.05 1013.67 1013.39 1013.35 1013.44 1012.89 1010.20 1005.86 1005.43 1006.21 1005.78 1006.18 1006.25 1006.17 1006.08 1005.64 1005.39 1005.54 1005.59 1005.50 1005.24 1005.58 1006.75 1007.85 1007.16 1006.30 1006.46 1006.39 1007.27 1007.75 1008.06 1008.32 1008.15 1008.03 1008.02 1008.46 1008.88
1017.11 1016.69 1016.29 1015.89 1015.43 1014.90 1014.37 1014.00 1013.60 1013.31 1013.06 1013.19 1013.20 1012.16 1008.38 1004.92 1004.91 1004.84 1004.97 1005.58 1005.86 1005.95 1005.78 1005.47 1005.60 1006.32 1006.28 1006.27 1006.16 1006.31 1006.90 1006.71 1006.45 1006.02 1005.99 1006.11 1006.64 1007.28 1007.76 1008.28 1008.21 1007.81 1008.04 1008.03 1008.62
1016.90 1016.40 1016.05 1015.70 1015.27 1014.72 1013.96 1013.33 1012.92 1012.96 1012.85 1012.56 1011.74 1011.14 1007.28 1004.52 1004.21 1004.39 1004.46 1004.91 1005.49 1005.81 1005.89 1005.83 1006.28 1006.65 1006.57 1006.46 1006.33 1005.96 1006.30 1005.79 1005.34 1005.38 1005.18 1005.51 1005.89 1006.95 1007.44 1007.61 1008.08 1008.32 1008.22 1008.20 1008.36
1016.55 1016.09 1015.75 1015.43 1015.08 1014.77 1013.88 1012.73 1012.99 1012.42 1011.44 1009.52 1008.23 1006.94 1004.83 1003.58 1003.38 1004.09 1004.22 1004.71 1005.02 1005.61 1006.10 1006.10 1006.68 1006.71 1006.09 1005.52 1005.00 1004.73 1004.62 1004.40 1003.78 1004.21 1004.47 1004.80 1005.45 1006.67 1007.52 1008.10 1008.77 1008.46 1008.40 1008.35 1008.34
1016.31 1015.78 1015.37 1015.05 1014.78 1014.67 1014.73 1012.59 1008.93 1007.87 1007.81 1007.22 1006.23 1005.79 1004.27 1003.59 1003.52 1003.72 1004.00 1004.81 1005.07 1005.72 1005.95 1006.28 1006.15 1005.64 1005.02 1004.45 1004.09 1003.83 1003.69 1003.60 1003.45 1003.15 1003.73 1004.17 1004.96 1006.00 1007.10 1008.36 1008.34 1008.76 1007.78 1008.30 1008.13
1015.91 1015.43 1014.98 1014.61 1014.28 1014.21 1012.61 1009.94 1007.90 1007.48 1007.09 1004.74 1004.07 1004.36 1003.69 1002.97 1002.89 1003.16 1003.80 1004.48 1004.99 1005.58 1005.68 1005.67 1005.03 1004.32 1004.23 1003.81 1003.61 1003.52 1003.37 1003.07 1003.23 1002.91 1003.11 1003.96 1004.83 1005.53 1007.56 1008.03 1007.13 1006.62 1007.61 1006.81 1007.73
1015.44 1014.95 1014.58 1014.21 1014.23 1011.59 1010.20 1007.43 1007.54 1007.55 1006.97 1003.46 1002.44 1002.60 1002.88 1002.79 1002.65 1002.38 1002.88 1004.01 1004.70 1005.00 1005.02 1004.69 1003.86 1003.46 1003.10 1002.89 1002.88 1003.10 1002.71 1002.63 1002.79 1003.13 1003.73 1004.16 1005.07 1005.76 1006.67 1006.99 1006.24 1006.68 1006.02 1005.95 1006.56
1014.95 1014.50 1014.23 1014.17 1013.56 1011.10 1007.66 1006.45 1006.56 1006.90 1005.86 1001.47 1001.34 1000.48 1001.32 1002.31 1001.52 1001.99 1002.29 1003.27 1004.01 1004.42 1004.57 1003.98 1003.28 1002.80 1002.53 1002.22 1002.30 1002.58 1002.47 1002.79 1003.09 1003.75 1004.16 1004.33 1005.38 1005.56 1005.66 1005.67 1005.09 1004.83 1003.74 1004.74 1004.84
1014.46 1014.09 1013.82 1013.37 1013.10 1009.21 1007.38 1006.79 1006.53 1006.62 1003.58 1000.89 1000.82 1000.90 1001.55 1002.04 1002.11 1001.97 1002.16 1002.71 1003.21 1004.02 1004.03 1003.39 1002.58 1002.17 1001.59 1001.47 1001.68 1002.04 1002.58 1003.15 1003.78 1004.49 1005.07 1004.53 1004.90 1005.30 1004.85 1003.32 1003.44 1003.20 1002.80 1003.24 1003.47
1013.76 1013.56 1013.62 1012.16 1009.57 1007.64 1007.20 1007.04 1006.86 1005.05 1001.30 1000.76 1000.79 1000.88 1001.42 1001.84 1002.21 1002.09 1002.36 1002.88 1003.55 1004.08 1004.10 1003.00 1002.25 1001.49 1001.20 1001.41 1001.51 1002.33 1003.34 1004.34 1005.11 1005.59 1005.32 1004.74 1004.35 1002.25 1001.11 1001.22 1001.02 1001.32 1001.50 1001.76 1002.22
1012.72 1012.73 1011.70 1010.48 1008.30 1007.95 1007.25 1007.38 1006.13 1003.10 1001.74 1000.51 1000.28 1000.62 1001.12 1001.27 1001.77 1001.93 1002.35 1002.70 1002.81 1003.33 1003.56 1003.21 1001.79 1000.46 999.97 1000.87 1001.38 1002.20 1003.24 1004.41 1005.12 1005.47 1004.71 1003.57 1003.14 1000.13 998.94 998.94 999.07 999.90 1000.01 1000.39 1001.37
1011.80 1011.30 1010.55 1008.49 1008.43 1008.50 1008.16 1007.20 1004.63 1002.78 1001.69 1001.42 1000.98 1000.71 1000.62 1000.56 1000.83 1001.57 1001.76 1001.86 1001.54 1001.88 1002.67 1002.37 1001.35 999.89 999.21 999.67 1000.80 1001.68 1002.45 1002.91 1004.28 1004.72 1004.74 1003.43 1001.47 999.46 998.66 998.84 998.83 998.73 999.12 999.67 1000.30
1011.54 1010.03 1008.17 1006.95 1007.43 1007.74 1007.89 1006.63 1004.45 1002.58 1001.92 1001.94 1002.03 1001.59 1001.55 1001.16 1000.94 1001.04 1001.03 1000.51 1000.35 1000.20 1000.45 1001.14 1001.29 1000.07 999.47 999.51 999.96 1000.84 1001.48 1002.79 1003.93 1005.08 1005.00 1003.37 1001.72 1000.20 999.23 998.83 998.41 998.55 998.88 999.25 999.75
1011.26 1009.18 1006.55 1006.32 1006.89 1007.50 1007.21 1005.53 1003.72 1002.54 1002.09 1002.46 1002.52 1002.49 1002.37 1001.98 1001.81 1001.40 1000.79 999.81 999.26 999.30 999.32 1000.18 1000.69 1000.52 999.95 999.78 1000.01 1000.48 1001.26 1002.32 1003.43 1004.45 1004.77 1003.84 1002.40 1000.08 999.09 998.53 998.53 998.36 998.71 999.07 999.38
1010.88 1008.20 1006.19 1006.10 1006.96 1006.58 1005.87 1004.57 1003.27 1002.42 1002.31 1002.29 1002.50 1002.81 1002.99 1002.89 1002.43 1002.01 1001.37 1000.77 1000.21 1000.14 999.94 1000.20 1000.72 1000.79 1000.08 999.59 999.41 999.82 1000.51 1001.41 1003.42 1004.01 1003.96 1003.37 1001.79 999.82 998.61 998.63 998.05 998.32 998.66 999.07 999.58
1011.84 1008.13 1005.64 1005.78 1006.40 1006.16 1005.18 1004.20 1003.14 1002.75 1002.89 1003.25 1003.49 1003.61 1003.93 1004.18 1003.83 1002.86 1002.06 1001.27 1000.91 1000.91 1001.08 1001.29 1001.61 1001.88 1001.14 1000.24 999.48 1000.08 1001.20 1001.74 1002.29 1002.98 1003.20 1003.22 1001.71 1000.07 998.39 998.72 998.65 999.06 999.14 999.26 999.87
1012.01 1008.47 1006.56 1006.27 1006.07 1006.18 1005.79 1004.92 1004.27 1003.60 1003.49 1003.62 1004.08 1004.50 1004.89 1004.92 1004.41 1003.98 1003.24 1002.19 1002.25 1002.57 1002.40 1001.85 1002.27 1002.87 1002.77 1001.97 1001.24 1001.03 1001.21 1001.93 1002.46 1003.46 1003.01 1002.60 1002.01 1001.48 1000.53 999.63 999.24 999.40 999.80 999.85 999.94
1011.48 1009.72 1009.32 1007.82 1007.18 1006.77 1006.48 1006.04 1005.49 1004.85 1004.89 1005.06 1005.26 1005.57 1006.06 1006.20 1005.58 1005.30 1004.88 1004.28 1003.39 1003.59 1003.73 1004.09 1003.74 1003.41 1002.90 1002.37 1001.59 1001.09 1001.36 1001.47 1002.35 1001.99 1002.52 1001.66 1001.39 1001.30 1000.82 1000.47 1000.08 999.56 999.61 1000.39 1001.47
1012.93 1012.02 1010.73 1009.65 1008.12 1007.45 1006.80 1006.48 1006.17 1006.22 1006.57 1006.59 1006.64 1006.62 1006.90 1007.08 1007.17 1006.94 1006.60 1006.50 1005.90 1004.59 1005.45 1005.10 1005.07 1004.73 1004.24 1003.37 1002.62 1001.38 1001.04 1001.03 1000.90 1001.16 1001.56 1001.26 1000.63 1000.94 1001.30 1001.41 1001.95 1000.28 1000.00 1000.74 1002.13
1014.62 1013.45 1012.35 1010.30 1009.14 1008.10 1007.89 1007.59 1007.46 1007.42 1007.43 1007.42 1007.47 1007.65 1007.57 1007.41 1007.43 1007.47 1007.25 1006.99 1006.65 1006.37 1005.85 1006.05 1005.86 1006.03 1005.12 1004.65 1003.78 1002.12 1001.29 1001.05 1001.05 1001.07 1001.03 1000.56 1000.69 1000.22 1000.52 1001.30 1000.95 1002.88 1000.16 1000.23 1000.57
Wind_Speed
12 12 11 11 11 11 11 11 12 12 13 14 13 11 11 12 17 4 7 9 6 9 5 7 11 16 18 11 10 3 7 5 5 4 2 3 1 6 5 8 20 12 15 19 14
13 13 12 12 12 12 11 11 12 13 14 14 13 13 11 10 5 10 12 9 8 11 4 10 15 16 9 7 4 6 4 6 11 4 2 3 3 1 7 9 19 22 18 14 15
14 13 14 14 14 13 13 12 12 12 14 15 14 13 11 9 5 8 10 14 11 10 7 13 17 17 18 6 11 4 5 6 4 7 9 5 10 6 9 3 11 19 20 18 15
15 15 14 15 14 14 14 13 13 13 14 14 13 11 10 4 2 3 7 11 10 6 7 7 10 13 9 5 7 7 9 14 2 2 10 3 4 9 2 4 4 24 21 18 16
15 15 15 15 15 14 14 13 14 14 14 13 11 9 6 4 11 7 6 9 7 4 10 12 15 15 7 2 12 8 9 16 8 5 9 7 4 9 4 2 5 11 23 20 17
16 16 16 16 16 15 15 14 14 14 13 11 8 6 3 6 3 13 10 7 8 8 9 13 13 13 6 6 3 5 11 5 3 1 10 10 7 8 7 9 10 10 22 21 19
16 16 16 16 16 16 16 15 16 15 12 9 6 5 5 16 7 10 12 6 8 9 11 15 9 7 10 10 7 2 4 3 2 5 3 5 6 6 8 10 14 13 11 24 20
16 16 16 16 17 17 16 16 17 15 11 7 3 5 9 9 16 11 11 10 10 10 12 11 6 8 6 10 13 9 8 7 10 2 5 8 5 6 9 7 7 9 10 19 19
17 17 16 16 17 18 18 19 17 11 6 3 3 3 10 5 6 14 11 10 11 11 10 11 3 4 10 8 7 4 4 12 12 9 6 9 5 8 8 7 7 7 0 10 16
18 17 16 16 16 16 20 19 7 10 4 7 9 5 8 9 9 9 9 10 10 10 8 6 3 5 6 3 7 6 4 8 7 8 11 9 4 14 13 13 12 8 5 5 9
19 18 17 16 13 12 11 0 0 1 6 12 11 8 9 8 7 8 8 9 7 6 6 8 4 7 14 13 16 14 10 4 2 11 8 6 4 16 15 9 8 9 7 7 8
17 19 18 17 12 9 5 5 10 7 8 22 19 20 20 11 8 10 10 6 5 7 8 6 8 13 16 16 15 11 8 4 7 6 8 6 9 20 17 6 2 8 13 13 9
18 19 18 18 13 6 8 12 8 14 5 10 18 10 15 10 8 11 12 9 7 9 11 10 12 15 18 17 8 10 7 4 9 9 1 4 7 5 15 9 15 22 19 17 13
19 20 18 16 4 4 6 10 15 12 4 8 9 8 13 9 10 11 16 10 7 10 12 10 14 15 17 8 6 6 11 9 8 5 3 2 9 4 15 14 18 13 19 18 16
19 19 15 6 9 5 7 6 10 4 4 8 8 5 10 13 4 13 10 10 11 11 7 12 10 9 12 6 9 9 8 7 7 6 6 9 1 2 4 9 11 16 17 22 21
19 15 11 4 5 12 13 12 1 1 8 6 6 6 6 9 14 12 9 9 9 9 14 15 14 11 8 7 4 6 6 6 7 2 2 11 5 1 7 12 10 14 16 24 21
19 11 6 7 4 8 8 4 1 5 4 9 6 10 9 8 12 10 8 7 6 4 9 16 18 19 9 7 2 6 4 4 6 3 7 6 11 12 20 14 17 20 21 16 24
20 12 11 7 8 11 3 1 5 9 10 6 7 13 9 11 11 11 7 8 10 10 10 9 16 10 17 12 10 9 8 7 7 3 3 7 9 10 17 14 17 20 21 20 23
23 4 4 7 13 5 1 3 5 12 12 10 13 8 7 10 9 11 11 11 12 15 10 6 15 14 11 8 12 10 6 12 5 5 4 6 8 7 3 8 8 11 9 18 17
3 4 5 10 11 4 1 5 7 8 9 9 5 8 13 13 10 11 11 15 21 14 15 10 8 12 12 6 8 10 7 4 4 3 7 8 6 5 7 1 7 7 9 9 14
3 3 4 8 6 1 3 7 13 6 7 4 8 10 13 12 12 11 6 9 7 10 12 9 8 11 6 4 9 3 5 5 5 5 3 3 7 6 8 8 6 3 7 10 9
5 3 6 7 2 4 6 6 6 6 9 5 4 7 7 14 9 10 12 11 12 7 10 5 2 5 13 12 12 8 9 11 7 8 5 6 9 3 7 5 8 5 7 8 8
4 4 6 5 3 5 8 12 11 4 3 7 8 9 11 9 8 12 14 17 15 12 1 5 5 4 11 9 6 6 13 8 13 3 7 3 7 8 5 10 9 8 3 9 8
4 3 2 3 5 7 7 8 13 15 3 3 5 8 7 9 8 8 13 14 20 17 9 3 4 5 6 10 9 8 7 5 12 10 5 5 7 12 11 5 2 3 6 4 9
2 4 5 5 7 7 7 8 9 8 12 14 9 13 11 7 8 9 14 15 21 12 15 13 5 6 9 12 19 16 15 12 7 6 13 22 17 5 7 7 7 3 5 9 14
5 5 7 7 9 7 7 5 10 13 9 9 8 11 9 7 7 9 9 8 5 11 12 11 8 10 10 12 17 19 14 14 17 10 18 16 15 3 7 4 20 9 9 9 8
7 6 3 7 8 6 6 8 11 10 5 12 13 9 9 11 10 9 10 9 12 14 17 7 4 7 7 10 17 13 5 9 13 19 7 13 5 12 12 17 16 10 8 15 19
Wind_Direction
1 0 358 354 346 343 342 331 327 325 323 323 325 325 321 316 304 212 244 234 199 185 178 258 240 245 250 250 91 95 50 300 267 314 101 262 338 304 15 49 59 61 120 139 137
359 358 356 350 346 344 339 330 327 326 322 323 325 325 323 327 275 247 237 202 148 154 221 253 261 246 247 222 140 113 107 260 281 155 140 81 142 172 57 69 90 94 115 134 129
359 356 354 349 346 342 336 331 327 320 318 321 322 324 323 318 287 245 202 184 159 171 261 273 289 286 280 268 157 151 171 226 208 126 152 183 179 192 122 40 111 134 138 144 151
357 352 350 347 342 337 331 326 323 321 317 316 318 319 320 265 278 22 105 134 153 190 253 273 272 280 283 282 91 92 11 342 51 47 160 79 112 90 26 193 237 150 152 152 170
352 347 343 342 339 333 326 323 318 317 316 314 314 317 302 233 251 142 140 138 152 193 236 253 276 278 328 15 148 146 135 227 249 183 123 126 145 124 166 129 117 155 157 165 174
348 343 341 337 335 329 323 320 316 314 311 310 306 310 253 254 166 149 166 161 202 198 235 251 263 291 297 315 2 191 187 130 77 204 171 162 155 134 230 206 241 239 164 170 174
345 341 338 335 331 326 321 317 312 310 303 297 282 262 264 242 143 165 170 193 209 191 238 256 281 332 322 324 325 292 140 115 262 291 179 174 161 171 196 191 243 181 196 171 174
343 338 337 332 328 323 317 312 310 306 295 283 225 251 254 257 240 207 187 195 212 243 233 274 334 350 324 295 296 273 52 34 288 272 266 158 217 181 175 210 236 178 207 167 166
340 335 333 329 326 322 316 310 300 289 273 179 197 226 263 280 193 232 173 197 198 233 254 260 31 291 305 288 304 4 171 212 252 213 230 187 202 164 170 203 244 210 240 154 169
335 333 329 326 322 318 314 292 275 309 213 196 261 292 247 233 188 221 222 197 191 216 244 235 254 253 276 253 248 200 204 249 193 219 227 213 220 155 181 189 202 238 195 205 161
334 330 324 322 315 320 338 321 357 231 250 200 191 232 263 224 162 208 178 210 214 199 223 235 203 236 245 247 253 268 215 219 16 189 190 211 224 169 182 209 241 194 215 207 195
327 327 322 320 311 315 295 243 258 332 274 223 241 235 264 258 169 197 160 199 217 219 220 261 242 235 255 266 277 302 303 343 294 220 172 205 243 177 175 147 140 292 195 215 212
324 326 321 317 312 278 224 236 291 316 285 270 208 214 240 253 203 193 162 207 216 223 239 221 246 240 243 260 261 288 278 218 244 282 252 336 292 147 160 170 182 204 241 202 194
323 325 322 319 305 264 227 240 235 254 301 267 174 211 228 236 242 235 178 180 219 247 248 237 240 247 264 244 229 273 292 306 290 230 243 184 277 211 153 192 196 207 207 209 176
322 322 317 297 321 262 308 251 200 183 307 131 141 180 177 202 259 198 194 193 221 238 242 254 266 265 264 255 282 245 253 298 310 311 359 286 299 252 95 208 210 198 208 214 184
319 316 316 207 219 247 301 293 20 266 245 162 124 170 196 194 233 267 207 177 193 234 270 269 282 276 255 245 257 286 325 291 320 327 325 268 267 189 207 207 221 215 223 202 189
316 305 264 303 235 314 239 308 249 235 308 137 168 169 185 201 217 245 193 186 184 263 254 269 260 257 242 274 282 294 301 324 326 329 227 41 312 213 210 205 202 204 219 209 186
315 311 218 238 290 310 272 290 251 272 336 9 41 172 179 190 198 221 230 204 216 212 264 282 302 251 210 197 194 235 180 171 236 262 217 225 240 257 198 204 195 195 211 196 175
312 176 238 236 227 256 306 225 263 342 18 5 343 317 229 181 179 185 230 218 219 195 210 232 277 302 154 190 166 253 263 224 239 290 328 250 286 360 93 175 192 179 154 175 179
309 267 220 161 189 233 220 254 287 280 31 3 324 317 329 336 185 175 203 228 240 216 201 227 250 276 290 218 199 163 222 354 322 251 270 288 291 212 103 83 65 122 158 160 171
241 247 134 145 158 237 236 255 293 12 87 10 331 322 321 325 336 323 280 265 262 265 218 209 208 267 273 243 202 235 235 244 175 166 205 320 292 211 203 214 169 77 172 169 164
306 255 168 168 172 218 230 238 233 325 354 311 265 278 325 341 336 334 332 328 18 324 330 349 221 260 230 248 260 231 223 180 153 273 219 179 264 226 88 209 162 147 124 148 157
294 260 168 179 255 268 310 315 356 324 6 13 330 356 355 333 333 337 320 315 324 339 106 353 334 341 335 329 285 307 21 12 332 307 235 171 266 291 144 88 85 70 113 130 142
289 295 143 191 240 282 345 344 348 346 315 218 17 13 325 307 304 306 320 334 354 18 329 347 208 216 236 262 293 309 351 255 216 267 281 238 287 336 327 3 130 89 37 206 142
255 16 358 331 343 351 340 326 306 327 15 29 360 352 1 342 335 345 351 344 337 3 353 355 319 281 280 284 292 290 289 281 188 207 283 283 285 250 218 312 292 144 86 84 12
10 353 343 287 307 297 284 0 4 17 18 338 346 350 347 318 8 340 348 345 297 327 342 327 320 331 320 328 325 279 278 290 295 216 224 256 284 189 50 269 281 210 130 108 28
9 327 276 289 305 321 34 2 349 1 346 343 344 347 331 327 356 333 312 296 279 283 291 282 303 335 283 324 325 300 302 308 322 325 268 243 245 353 348 335 312 323 160 151 187